Miscellaneous Local Product
Issued by NWS North Platte, NE

Home | Current Version | Previous Version | Graphics & Text | Print | Product List | Glossary On
Versions: 1 2 3 4 5 6 7 8 9 10 11 12 13 14 15 16 17 18 19 20 21 22 23 24 25 26 27 28 29 30 31 32 33 34 35 36 37 38 39 40 41 42 43 44 45 46 47 48 49 50
000
AXUS43 KLBF 161510
MISLBF


WESTERN AND NORTH CENTRAL NEBRASKA HOURLY WEATHER ROUNDUP
NATIONAL WEATHER SERVICE NORTH PLATTE NE
1000 AM CDT TUE SEP 16 2014

***STATIONS NOT REPORTING VARIABLES SUCH AS SKY/WEATHER OR
PRESSURE ARE PROVIDED BY THE NEBRASKA DEPARTMENT OF
ROADS...RAWS...AND APRS NETWORKS...AND ARE NOT UNDER
NATIONAL WEATHER SERVICE QUALITY CONTROL***

...OBSERVATIONS IN AND NEAR THE EASTERN PANHANDLE OF NEBRASKA...

CITY           SKY/WX    TMP DP  RH WIND       PRES   REMARKS
PINE RIDGE     SUNNY     59  52  77 W7        30.05S
CHADRON        SUNNY     59  50  72 W9        30.06S
ALLIANCE       SUNNY     59  52  77 W8        30.07F
SIDNEY         SUNNY     59  52  77 SW12      30.11S
WHITECLAY        N/A     60  50  69 CALM        N/A
RUSHVILLE        N/A     58  50  73 W7          N/A
LISCO            N/A     62  51  67 E5          N/A
BIG SPRINGS      N/A     54  52  92 S8          N/A
$$

...OBSERVATIONS IN NORTH CENTRAL NEBRASKA...

CITY           SKY/WX    TMP DP  RH WIND       PRES   REMARKS
VALENTINE      SUNNY     59  48  67 S12       30.06F
THEDFORD       SUNNY     58  48  70 S17G24    30.08F
AINSWORTH      SUNNY     56  47  70 S15G21    30.07S
O`NEILL        SUNNY     56  48  75 S20G26    30.13F
ORD            SUNNY     54  48  80 S12       30.16S
BROKEN BOW     SUNNY     56  49  77 S16G24    30.14F
SPRINGVIEW       N/A     57  48  71 SW7         N/A
ROSE             N/A     58  51  77 SE18        N/A
NEWPORT          N/A     59  48  67 S20         N/A
COMSTOCK         N/A     59  52  77 S9          N/A
CHAMBERS         N/A     57  48  71 S8G20       N/A
$$

...OBSERVATIONS IN SOUTHWEST NEBRASKA AND FAR NORTHEAST COLORADO...

CITY           SKY/WX    TMP DP  RH WIND       PRES   REMARKS
WRAY           FAIR      64  55  73 S10       30.13F
HOLYOKE        FAIR      61  54  77 S9        30.11F
IMPERIAL       MOSUNNY   61  53  75 S16G25    30.11F
OGALLALA       PTSUNNY   58  54  84 S12G17    30.08R
NORTH PLATTE   MOSUNNY   57  50  77 S13       30.10F
MCCOOK         CLOUDY    58  51  78 S12G23    30.15F
LEXINGTON      CLOUDY    55  50  85 S12G17    30.18S
PAXTON           N/A     55  51  88 S12         N/A
SUTHERLAND       N/A     55  50  83 S18         N/A
BRADY            N/A     55  50  84 CALM        N/A
GOTHENBURG       N/A     52  45  78 S7          N/A
CALLAWAY         N/A     50  49  95 S12         N/A
$$

...SOME WEATHER OBSERVATIONS FROM AROUND THE REGION...

CITY           SKY/WX    TMP DP  RH WIND       PRES   REMARKS
DENVER         MOSUNNY   70  45  40 SW14      30.20R
LARAMIE        SUNNY     65  35  33 NW12      30.30S
CHEYENNE       SUNNY     68  38  33 W13       30.22S
SCOTTSBLUFF    MOSUNNY   55  51  86 W8        30.10S
RAPID CITY     SUNNY     63  47  55 NW5       30.03S
PIERRE         SUNNY     56  45  66 SE8       30.01S
WINNER         FAIR      58  46  64 S16G25    30.03F
SIOUX FALLS    SUNNY     55  45  68 S12       30.16F
OMAHA          SUNNY     54  48  80 S8        30.24F
GRAND ISLAND     N/A     56  47  71 S14       30.20S
KANSAS CITY    MOSUNNY   57  51  80 SE8       30.24S
WICHITA        CLOUDY    61  51  70 E5        30.21R
HAYS           CLOUDY    55  46  71 SE8       30.21S
LIBERAL        MOSUNNY   66  55  68 S10       30.22F
GOODLAND       PTSUNNY   60  53  77 SW15      30.16F
$$



USA.gov is the U.S. government's official web portal to all federal, state and local government web resources and services.